TimeCDT,TemperatureF,Dew PointF,Humidity,Sea Level PressureIn,VisibilityMPH,Wind Direction,Wind SpeedMPH,Gust SpeedMPH,PrecipitationIn,Events,Conditions,WindDirDegrees,DateUTC
12:53 AM,59.0,41.0,51,29.95,10.0,WNW,8.1,-,N/A,,Scattered Clouds,290,2013-10-05 05:53:00
1:53 AM,55.9,39.9,55,29.95,10.0,WNW,12.7,23.0,0.00,Rain,Light Rain,290,2013-10-05 06:53:00
2:53 AM,53.1,39.9,61,29.97,10.0,WNW,11.5,24.2,0.00,,Overcast,290,2013-10-05 07:53:00
3:53 AM,51.1,39.0,63,29.98,10.0,West,10.4,-,N/A,,Mostly Cloudy,280,2013-10-05 08:53:00
4:53 AM,51.1,35.1,54,29.98,10.0,WNW,9.2,19.6,N/A,,Overcast,300,2013-10-05 09:53:00
5:53 AM,50.0,34.0,54,30.00,10.0,WNW,13.8,24.2,N/A,,Overcast,290,2013-10-05 10:53:00
6:53 AM,48.0,33.1,56,30.01,10.0,WNW,5.8,-,N/A,,Partly Cloudy,290,2013-10-05 11:53:00
7:53 AM,46.9,34.0,61,30.01,10.0,WNW,5.8,-,N/A,,Partly Cloudy,290,2013-10-05 12:53:00
8:53 AM,48.9,35.1,59,30.02,10.0,West,5.8,-,N/A,,Overcast,270,2013-10-05 13:53:00
9:53 AM,52.0,36.0,54,30.04,10.0,WNW,10.4,-,N/A,,Overcast,290,2013-10-05 14:53:00
10:53 AM,52.0,34.0,50,30.05,10.0,West,9.2,-,N/A,,Overcast,270,2013-10-05 15:53:00
11:53 AM,53.1,34.0,48,30.05,10.0,West,10.4,20.7,N/A,,Overcast,260,2013-10-05 16:53:00
12:53 PM,54.0,34.0,47,30.05,10.0,West,12.7,21.9,N/A,,Overcast,270,2013-10-05 17:53:00
1:53 PM,55.0,34.0,45,30.01,10.0,West,11.5,-,N/A,,Overcast,280,2013-10-05 18:53:00
2:53 PM,57.9,35.1,42,29.98,10.0,WSW,15.0,23.0,N/A,,Clear,250,2013-10-05 19:53:00
3:53 PM,60.1,34.0,38,29.96,10.0,West,8.1,17.3,N/A,,Clear,270,2013-10-05 20:53:00
4:53 PM,62.1,33.1,34,29.93,10.0,WSW,13.8,21.9,N/A,,Clear,250,2013-10-05 21:53:00
5:53 PM,61.0,34.0,36,29.92,10.0,WSW,10.4,-,N/A,,Clear,250,2013-10-05 22:53:00
6:53 PM,57.9,34.0,41,29.93,10.0,West,9.2,-,N/A,,Partly Cloudy,260,2013-10-05 23:53:00
7:53 PM,55.9,34.0,44,29.95,10.0,WNW,9.2,-,N/A,,Clear,290,2013-10-06 00:53:00
8:53 PM,53.1,33.1,47,29.96,10.0,West,4.6,-,N/A,,Clear,260,2013-10-06 01:53:00
9:53 PM,51.1,35.1,54,29.96,10.0,WSW,4.6,-,N/A,,Clear,250,2013-10-06 02:53:00
10:53 PM,48.9,35.1,59,29.96,10.0,West,4.6,-,N/A,,Clear,260,2013-10-06 03:53:00
11:53 PM,48.9,33.1,54,29.95,10.0,WSW,10.4,16.1,N/A,,Clear,250,2013-10-06 04:53:00